SCP
0 0 0 0 0 0 0 0 0 0 0 0 0 0 0 0 0 0 0 0 0 0 0 0 -0 0 0 0 0 0 0 0 0 0 0 0 0 0 0 0 0 0 0 0
0 0 0 0 0 0 0 0 0 0 0 0 0 0 0 0 0 0 0 0 0 0 0 0 -0 -0 0 0 0 0 0 0 0 0 -0 -0 0 0 0 0 0 0 0 0
0 0 0 0 0 0 0 0 0 0 0 0 0 0 0 0 0 0 0 0 0 0 0 0 0 0 0 0 0 0 0 0 0 0 0 0 0 0 0 0 0 0 0 0
0 0 0 0 0 0 0 0 0 0 0 0 0 0 0 0 0 0 0 0 0 0 0 0 0 0 0 0 0 0 0 0 0 0 0 0 0 0 0 0 0 0 0 0
0 0 0 0 0 0 0 0 0 0 0 0 0 0 0 0 0 0 0 0 0 0 0 0 0 0 0 0 -0 0 0 0 0 0 0 0 0 0 0 0 0 0 0 0
0 0 0 0 0 0 0 0 0 0 0 0 0 0 0 0 0 0 0 0 0 0 0 0 0 0 0 0 0 -0 0 0 0 0 0 0 0 0 0 0 0 0 0 0
0 0 0 0 0 0 0 0 0 0 0 0 0 0 0 0 0 0 -0 -0 0 0 0 0 0 0 0 0 0 0 0 0 0 0 0 0 0 0 0 0 0 0 0 0
0 0 0 0 0 0 0 0 0 0 0 0 0 0 0 0 0 0 0 -0 -0 -0 -0 0 0 0 0 0 0 0 0 0 0 0 0 0 0 0 0 0 0 0 0 0
0 0 0 0 0 0 0 0 0 0 0 0 0 0 0 0 0 0 -0 0 -0 -0 0 0 0 0 0 0 -0 0 0 0 0 0 0 0 0 0 0 0 0 0 0 0
0 0 0 0 0 0 0 0 0 0 0 0 0 0 0 0 0 0 0 0 -0 0 0 0 0 0 0 0 0 0 1 1 1 0 0 0 0 0 0 0 0 2 0 0
0 0 0 0 0 0 0 0 0 0 0 0 0 0 0 0 0 0 0 0 0 0 0 0 0 0 0 0 0 0 1 0 0 0 0 0 0 0 0 0 0 1 1 1
0 0 0 0 0 0 0 0 0 0 0 0 0 0 0 0 0 0 0 0 0 0 0 0 0 0 1 1 0 0 1 0 0 0 0 0 0 0 0 0 0 0 0 0
0 0 0 0 0 0 0 0 0 0 0 -0 0 0 0 0 0 0 0 -0 -0 -0 -0 0 0 1 0 0 1 1 1 1 0 1 1 0 0 0 0 0 1 0 0 0
0 0 0 0 0 0 0 0 0 0 0 0 0 0 0 0 0 0 0 0 0 -0 -0 0 0 0 0 0 0 1 1 1 0 1 0 0 0 0 0 1 1 0 0 0
0 0 0 0 0 0 0 0 0 0 0 0 0 0 0 0 0 0 0 0 -0 0 -0 -0 0 0 0 0 0 0 0 0 1 1 1 0 0 0 0 0 0 0 0 0
0 0 0 0 0 0 0 0 0 0 0 0 0 0 0 0 0 0 0 0 0 -0 -0 -0 -0 0 0 0 0 0 0 0 0 0 0 1 0 0 0 0 0 0 0 0
0 0 0 0 0 0 0 0 0 0 0 0 0 0 0 -0 0 0 0 0 0 0 -0 0 -0 0 0 0 0 0 0 -0 0 0 0 0 0 0 0 0 0 0 0 0
0 0 0 0 0 0 -0 0 0 0 0 0 0 0 0 0 0 0 0 0 0 0 0 0 -0 0 0 0 0 0 0 0 0 0 0 0 0 0 0 0 0 0 0 0
0 0 0 0 0 0 0 0 0 0 0 0 0 0 0 0 -0 0 0 0 0 0 0 0 0 -0 0 0 0 0 0 0 0 0 0 0 -0 -0 0 0 0 0 0 0
0 0 0 0 -0 0 0 0 0 0 0 0 -0 0 0 0 0 0 0 0 0 0 0 0 0 -0 0 0 0 0 0 0 0 0 0 -0 0 0 0 0 0 0 0 0
0 0 0 0 0 0 0 0 0 0 0 0 -0 0 0 0 0 0 0 0 0 0 0 0 0 -0 0 0 -0 0 0 0 0 0 0 0 0 0 0 0 0 0 0 0
0 0 0 0 0 0 0 0 0 0 0 0 0 0 0 0 0 0 0 0 0 0 0 0 0 0 0 0 0 -0 -0 -0 0 0 0 0 0 0 0 0 0 0 0 0
0 0 0 0 0 0 0 0 0 0 0 0 0 0 0 0 0 0 0 0 0 0 0 0 0 0 0 0 0 0 0 0 0 0 0 0 0 0 0 0 0 0 0 0
0 0 0 0 0 0 0 0 0 -0 0 0 0 0 0 0 0 0 0 0 0 0 0 0 0 0 0 0 0 0 0 0 0 0 0 0 0 0 0 0 0 0 0 0
0 0 0 0 0 -0 -0 -0 -0 -0 0 0 0 0 0 0 0 0 0 0 0 0 0 0 0 0 0 0 0 0 0 0 0 0 0 0 0 0 0 0 0 0 0 0
0 0 0 0 -0 -0 -0 0 0 0 0 0 0 0 0 0 0 0 0 0 0 0 0 0 0 0 0 0 0 0 0 0 0 0 0 0 0 0 0 0 0 0 0 0
0 0 -0 0 -0 -0 -0 -0 0 0 0 0 0 0 0 0 0 0 0 0 0 0 0 0 0 0 0 0 0 0 0 0 0 0 0 0 0 0 0 0 0 0 0 0
Wind_Speed_500mb
31 27 28 29 31 17 12 9 7 19 28 10 13 15 15 16 39 58 34 32 31 29 37 30 23 30 24 47 47 34 22 19 17 35 40 19 21 23 20 10 11 6 11 9
29 26 24 21 23 19 17 8 20 19 23 7 14 28 37 48 36 36 35 30 30 34 33 16 9 26 48 67 27 33 21 12 15 20 17 11 16 17 14 10 10 13 9 10
28 23 19 17 18 14 12 10 7 17 37 35 18 20 26 32 40 43 45 39 40 36 32 20 27 37 32 68 62 61 52 14 27 25 22 9 7 13 13 14 8 11 12 11
37 24 21 14 10 8 10 9 13 17 4 16 18 20 20 28 30 43 56 21 30 34 30 29 33 31 40 54 64 14 16 16 15 23 26 27 16 18 22 17 15 16 18 18
24 21 21 15 11 11 12 12 14 25 36 27 21 17 16 29 30 27 31 26 33 36 31 34 27 19 28 29 18 16 15 7 15 15 26 37 30 29 23 18 14 11 18 12
24 22 20 17 14 12 9 16 17 17 16 13 12 13 21 31 39 30 34 36 34 39 32 67 76 53 51 26 11 22 12 6 9 14 15 17 27 34 31 19 18 13 18 12
26 25 22 22 19 20 23 7 20 12 11 14 19 29 35 27 34 11 40 44 29 35 83 90 63 60 54 44 19 29 25 15 5 11 8 25 12 17 21 24 30 13 32 22
24 25 24 23 21 20 25 11 7 7 11 25 33 37 34 37 49 25 28 55 29 44 37 14 15 19 20 41 34 30 19 17 10 11 15 13 23 21 13 6 11 36 39 42
21 24 24 23 20 19 23 19 15 13 12 16 37 46 38 18 15 16 21 45 50 20 5 8 11 21 28 16 11 26 17 14 14 4 17 31 3 5 12 5 8 21 54 43
21 21 22 23 19 20 24 25 19 22 22 54 53 26 25 33 23 14 17 23 25 9 5 7 14 15 22 33 21 24 7 7 15 12 13 10 4 3 6 13 14 27 44 56
24 22 21 26 25 23 25 29 22 26 28 54 64 55 54 41 33 11 18 19 13 8 2 6 11 15 23 18 27 26 15 13 9 6 6 13 6 8 11 11 51 63 47 37
22 25 21 23 30 27 25 31 19 28 38 45 53 52 53 50 48 33 12 6 5 9 7 8 13 14 8 5 22 15 9 15 16 18 17 23 40 11 35 50 70 74 87 80
19 21 26 25 25 28 32 29 24 32 34 53 45 54 39 41 56 64 26 17 10 13 24 14 11 15 2 6 8 8 18 11 10 14 15 24 40 13 55 55 58 59 79 84
16 17 21 22 23 27 29 32 19 24 21 13 26 35 40 28 27 56 63 54 21 25 25 14 16 9 10 6 5 6 7 9 11 10 28 33 25 42 57 72 76 80 82 78
16 17 19 19 20 22 25 31 31 26 29 11 36 75 54 39 31 30 47 43 52 38 14 7 13 16 5 5 6 3 8 6 7 4 16 13 31 49 58 58 63 73 81 76
15 15 17 19 18 18 13 10 20 27 41 13 8 30 50 38 36 35 38 38 42 37 15 12 20 24 6 4 3 6 14 24 41 9 7 25 23 32 45 42 66 66 77 72
13 11 14 17 15 23 24 10 5 19 20 9 10 12 15 22 29 35 34 31 35 26 26 18 14 16 19 3 5 11 14 19 9 35 40 30 26 15 64 70 43 54 60 65
14 12 15 18 21 26 39 37 28 25 10 9 7 9 13 17 19 21 35 25 33 17 17 7 2 21 14 3 10 9 7 15 20 20 16 11 33 34 49 75 64 66 65 66
15 14 14 17 22 15 23 20 16 23 18 10 8 6 6 18 20 8 14 30 7 15 8 10 5 6 6 11 20 22 12 11 10 20 39 51 59 48 50 65 63 64 66 58
11 11 7 9 14 23 8 11 10 16 17 20 11 19 8 15 10 9 10 7 6 6 11 16 8 10 30 11 9 17 19 22 20 13 72 61 59 62 51 52 55 58 54 56
10 9 10 10 27 19 10 9 12 17 10 19 21 38 20 7 11 3 6 6 6 4 4 7 6 8 17 37 14 13 32 34 39 35 45 47 54 57 52 53 54 51 56 57
11 9 11 12 10 10 7 7 9 11 9 18 31 29 39 13 2 6 11 5 6 4 2 7 4 7 48 51 41 30 29 27 4 16 38 41 42 46 49 51 46 41 47 55
20 8 6 10 11 8 11 14 9 8 13 10 29 17 11 4 3 5 7 5 6 21 6 4 4 2 53 52 38 34 31 26 14 5 13 26 36 42 41 38 39 42 46 51
11 12 10 8 10 11 9 8 7 9 20 23 31 17 8 5 4 3 3 4 6 4 3 4 8 26 50 44 39 30 18 13 8 6 9 8 12 22 26 25 32 39 40 51
8 9 8 13 11 6 16 11 19 13 13 4 21 12 6 4 4 1 2 3 5 6 3 5 35 37 40 38 29 28 18 7 7 4 13 16 21 26 27 20 34 34 48 50
9 13 12 15 14 5 5 13 26 33 31 29 12 4 4 6 3 7 9 5 3 6 4 20 41 36 27 30 25 20 14 11 6 4 7 20 22 27 24 34 30 31 39 52
9 12 18 20 18 16 15 5 7 5 6 3 6 5 10 3 5 5 4 3 5 19 16 28 27 27 21 22 22 17 10 3 1 3 12 17 12 33 29 29 29 32 40 42
Wind_Direction_500mb
306 305 305 310 318 317 271 308 261 145 169 145 219 234 261 266 283 292 289 295 298 276 289 297 307 293 284 262 205 217 207 198 236 257 267 241 173 190 183 149 274 216 161 264
298 300 305 314 333 344 336 287 274 213 200 231 237 257 265 268 267 262 275 273 280 283 285 302 280 299 299 303 298 202 208 221 225 276 299 319 217 197 181 173 149 220 142 264
296 287 289 301 324 326 319 297 280 227 199 226 260 281 289 291 292 292 287 267 272 280 278 253 270 281 292 306 302 305 186 176 201 221 239 233 221 185 207 159 162 210 209 230
286 271 280 285 304 307 315 242 258 303 282 228 269 260 264 285 294 296 293 310 267 261 277 276 260 269 287 294 296 268 146 188 178 220 211 248 261 275 214 213 204 180 229 229
262 255 266 268 271 287 269 289 353 333 306 306 306 309 303 295 290 291 298 291 317 334 264 250 262 271 268 268 339 348 304 214 166 221 219 227 253 270 265 221 261 209 198 204
256 258 265 258 254 252 224 339 313 316 296 297 301 274 283 289 283 295 313 331 327 305 303 329 301 278 268 253 301 303 303 329 144 237 221 217 246 234 252 220 215 220 214 164
266 252 259 249 246 245 238 299 325 296 283 291 286 293 292 296 302 316 304 318 304 297 308 316 306 255 266 266 252 248 274 263 214 216 180 229 239 200 249 260 204 158 95 94
273 256 253 246 240 240 247 231 263 292 286 288 286 284 294 328 302 307 324 304 302 326 310 319 274 250 257 259 250 248 223 231 253 183 207 244 239 256 228 103 250 153 141 148
256 256 251 242 243 237 237 226 243 248 283 244 257 330 315 300 315 316 291 307 318 322 22 272 243 240 230 240 226 226 233 226 220 191 207 229 122 124 262 97 70 7 140 138
253 254 251 233 235 233 235 227 224 253 256 266 275 284 300 303 315 306 310 333 324 343 85 282 250 278 220 232 222 215 159 99 201 225 232 247 109 273 282 124 195 55 161 153
253 251 254 235 234 235 245 248 229 255 265 275 274 275 288 302 284 271 320 334 13 313 17 246 226 264 230 244 225 206 171 158 183 136 63 266 182 70 150 189 132 107 105 122
251 248 249 243 239 243 244 257 228 275 252 268 273 271 264 259 263 272 260 255 122 347 22 349 335 280 312 242 233 227 166 180 176 184 200 276 286 242 146 131 128 128 133 130
249 250 242 249 241 240 239 253 250 280 297 299 273 272 286 280 251 239 226 254 227 264 301 313 285 262 354 273 33 307 6 113 165 140 178 164 220 239 160 170 147 144 137 140
247 251 245 248 241 239 242 244 235 267 272 273 290 296 287 256 255 229 237 243 230 281 277 295 251 329 8 16 265 294 14 306 318 106 147 149 180 150 123 127 133 133 137 140
256 255 244 243 241 241 245 248 248 238 250 298 295 304 286 261 232 250 225 234 228 235 223 216 294 285 241 152 214 347 341 8 35 312 0 286 164 146 139 137 144 144 143 141
257 251 241 238 242 241 229 284 250 232 252 267 298 291 291 261 257 221 206 220 220 224 221 192 257 237 14 272 269 161 122 84 36 277 344 88 114 149 163 156 138 142 139 141
250 248 244 233 233 222 205 226 239 194 219 252 274 268 289 231 212 213 200 218 228 238 246 210 246 338 323 241 278 164 180 126 216 72 81 57 30 58 113 108 99 116 127 136
239 251 245 238 238 246 248 242 263 273 240 247 269 271 267 242 184 210 206 205 219 240 237 285 73 351 322 320 348 140 90 137 199 149 137 58 39 150 150 137 138 127 125 132
243 253 270 255 246 241 248 229 238 242 220 289 258 287 310 317 235 224 203 210 193 228 197 204 225 107 292 17 35 59 31 118 105 175 174 162 152 158 123 128 131 131 131 132
234 272 255 239 216 210 177 200 206 200 211 221 247 266 271 308 273 121 230 248 222 227 205 194 188 208 217 277 7 61 96 91 75 166 190 202 144 133 137 136 143 140 141 143
229 218 230 247 160 179 204 212 208 199 226 216 234 227 251 266 276 189 298 247 243 215 239 161 199 199 200 177 166 103 88 82 72 340 165 144 135 121 123 133 139 143 148 152
202 271 279 187 191 205 202 215 217 212 232 223 198 206 209 210 148 87 324 267 337 245 330 171 244 203 181 187 172 150 135 133 82 42 85 134 139 143 137 140 143 148 156 158
227 235 243 188 184 204 214 202 201 215 225 222 178 202 125 133 166 178 217 251 249 319 335 205 260 172 173 179 180 159 151 160 158 112 82 106 106 129 130 134 152 157 156 164
222 205 218 234 195 226 215 276 328 283 311 185 153 141 115 138 210 213 299 341 300 276 226 251 68 69 145 134 131 122 120 135 151 192 173 166 157 144 122 157 158 163 171 171
233 232 241 223 264 290 281 281 300 248 256 345 93 92 105 150 218 265 12 242 272 270 287 63 78 81 103 109 113 104 109 124 140 194 228 209 187 198 179 157 168 168 168 173
233 235 263 290 299 326 96 273 233 250 156 131 96 143 105 218 182 170 203 242 191 354 5 67 100 90 88 96 95 104 109 123 137 11 117 166 173 185 205 187 185 174 182 170
239 243 254 278 285 275 285 262 227 265 177 97 115 189 196 186 185 204 57 355 122 116 113 104 108 106 101 92 91 82 97 175 291 129 116 112 96 188 180 183 185 182 180 183
Wind_Speed_850mb
31 27 28 29 31 17 12 9 7 19 28 10 13 15 15 16 39 58 34 32 31 29 37 30 23 30 24 47 47 34 22 19 17 35 40 19 21 23 20 10 11 6 11 9
29 26 24 21 23 19 17 8 20 19 23 7 14 28 37 48 36 36 35 30 30 34 33 16 9 26 48 67 27 33 21 12 15 20 17 11 16 17 14 10 10 13 9 10
28 23 19 17 18 14 12 10 7 17 37 35 18 20 26 32 40 43 45 39 40 36 32 20 27 37 32 68 62 61 52 14 27 25 22 9 7 13 13 14 8 11 12 11
37 24 21 14 10 8 10 9 13 17 4 16 18 20 20 28 30 43 56 21 30 34 30 29 33 31 40 54 64 14 16 16 15 23 26 27 16 18 22 17 15 16 18 18
24 21 21 15 11 11 12 12 14 25 36 27 21 17 16 29 30 27 31 26 33 36 31 34 27 19 28 29 18 16 15 7 15 15 26 37 30 29 23 18 14 11 18 12
24 22 20 17 14 12 9 16 17 17 16 13 12 13 21 31 39 30 34 36 34 39 32 67 76 53 51 26 11 22 12 6 9 14 15 17 27 34 31 19 18 13 18 12
26 25 22 22 19 20 23 7 20 12 11 14 19 29 35 27 34 11 40 44 29 35 83 90 63 60 54 44 19 29 25 15 5 11 8 25 12 17 21 24 30 13 32 22
24 25 24 23 21 20 25 11 7 7 11 25 33 37 34 37 49 25 28 55 29 44 37 14 15 19 20 41 34 30 19 17 10 11 15 13 23 21 13 6 11 36 39 42
21 24 24 23 20 19 23 19 15 13 12 16 37 46 38 18 15 16 21 45 50 20 5 8 11 21 28 16 11 26 17 14 14 4 17 31 3 5 12 5 8 21 54 43
21 21 22 23 19 20 24 25 19 22 22 54 53 26 25 33 23 14 17 23 25 9 5 7 14 15 22 33 21 24 7 7 15 12 13 10 4 3 6 13 14 27 44 56
24 22 21 26 25 23 25 29 22 26 28 54 64 55 54 41 33 11 18 19 13 8 2 6 11 15 23 18 27 26 15 13 9 6 6 13 6 8 11 11 51 63 47 37
22 25 21 23 30 27 25 31 19 28 38 45 53 52 53 50 48 33 12 6 5 9 7 8 13 14 8 5 22 15 9 15 16 18 17 23 40 11 35 50 70 74 87 80
19 21 26 25 25 28 32 29 24 32 34 53 45 54 39 41 56 64 26 17 10 13 24 14 11 15 2 6 8 8 18 11 10 14 15 24 40 13 55 55 58 59 79 84
16 17 21 22 23 27 29 32 19 24 21 13 26 35 40 28 27 56 63 54 21 25 25 14 16 9 10 6 5 6 7 9 11 10 28 33 25 42 57 72 76 80 82 78
16 17 19 19 20 22 25 31 31 26 29 11 36 75 54 39 31 30 47 43 52 38 14 7 13 16 5 5 6 3 8 6 7 4 16 13 31 49 58 58 63 73 81 76
15 15 17 19 18 18 13 10 20 27 41 13 8 30 50 38 36 35 38 38 42 37 15 12 20 24 6 4 3 6 14 24 41 9 7 25 23 32 45 42 66 66 77 72
13 11 14 17 15 23 24 10 5 19 20 9 10 12 15 22 29 35 34 31 35 26 26 18 14 16 19 3 5 11 14 19 9 35 40 30 26 15 64 70 43 54 60 65
14 12 15 18 21 26 39 37 28 25 10 9 7 9 13 17 19 21 35 25 33 17 17 7 2 21 14 3 10 9 7 15 20 20 16 11 33 34 49 75 64 66 65 66
15 14 14 17 22 15 23 20 16 23 18 10 8 6 6 18 20 8 14 30 7 15 8 10 5 6 6 11 20 22 12 11 10 20 39 51 59 48 50 65 63 64 66 58
11 11 7 9 14 23 8 11 10 16 17 20 11 19 8 15 10 9 10 7 6 6 11 16 8 10 30 11 9 17 19 22 20 13 72 61 59 62 51 52 55 58 54 56
10 9 10 10 27 19 10 9 12 17 10 19 21 38 20 7 11 3 6 6 6 4 4 7 6 8 17 37 14 13 32 34 39 35 45 47 54 57 52 53 54 51 56 57
11 9 11 12 10 10 7 7 9 11 9 18 31 29 39 13 2 6 11 5 6 4 2 7 4 7 48 51 41 30 29 27 4 16 38 41 42 46 49 51 46 41 47 55
20 8 6 10 11 8 11 14 9 8 13 10 29 17 11 4 3 5 7 5 6 21 6 4 4 2 53 52 38 34 31 26 14 5 13 26 36 42 41 38 39 42 46 51
11 12 10 8 10 11 9 8 7 9 20 23 31 17 8 5 4 3 3 4 6 4 3 4 8 26 50 44 39 30 18 13 8 6 9 8 12 22 26 25 32 39 40 51
8 9 8 13 11 6 16 11 19 13 13 4 21 12 6 4 4 1 2 3 5 6 3 5 35 37 40 38 29 28 18 7 7 4 13 16 21 26 27 20 34 34 48 50
9 13 12 15 14 5 5 13 26 33 31 29 12 4 4 6 3 7 9 5 3 6 4 20 41 36 27 30 25 20 14 11 6 4 7 20 22 27 24 34 30 31 39 52
9 12 18 20 18 16 15 5 7 5 6 3 6 5 10 3 5 5 4 3 5 19 16 28 27 27 21 22 22 17 10 3 1 3 12 17 12 33 29 29 29 32 40 42
Wind_Direction_850mb
306 305 305 310 318 317 271 308 261 145 169 145 219 234 261 266 283 292 289 295 298 276 289 297 307 293 284 262 205 217 207 198 236 257 267 241 173 190 183 149 274 216 161 264
298 300 305 314 333 344 336 287 274 213 200 231 237 257 265 268 267 262 275 273 280 283 285 302 280 299 299 303 298 202 208 221 225 276 299 319 217 197 181 173 149 220 142 264
296 287 289 301 324 326 319 297 280 227 199 226 260 281 289 291 292 292 287 267 272 280 278 253 270 281 292 306 302 305 186 176 201 221 239 233 221 185 207 159 162 210 209 230
286 271 280 285 304 307 315 242 258 303 282 228 269 260 264 285 294 296 293 310 267 261 277 276 260 269 287 294 296 268 146 188 178 220 211 248 261 275 214 213 204 180 229 229
262 255 266 268 271 287 269 289 353 333 306 306 306 309 303 295 290 291 298 291 317 334 264 250 262 271 268 268 339 348 304 214 166 221 219 227 253 270 265 221 261 209 198 204
256 258 265 258 254 252 224 339 313 316 296 297 301 274 283 289 283 295 313 331 327 305 303 329 301 278 268 253 301 303 303 329 144 237 221 217 246 234 252 220 215 220 214 164
266 252 259 249 246 245 238 299 325 296 283 291 286 293 292 296 302 316 304 318 304 297 308 316 306 255 266 266 252 248 274 263 214 216 180 229 239 200 249 260 204 158 95 94
273 256 253 246 240 240 247 231 263 292 286 288 286 284 294 328 302 307 324 304 302 326 310 319 274 250 257 259 250 248 223 231 253 183 207 244 239 256 228 103 250 153 141 148
256 256 251 242 243 237 237 226 243 248 283 244 257 330 315 300 315 316 291 307 318 322 22 272 243 240 230 240 226 226 233 226 220 191 207 229 122 124 262 97 70 7 140 138
253 254 251 233 235 233 235 227 224 253 256 266 275 284 300 303 315 306 310 333 324 343 85 282 250 278 220 232 222 215 159 99 201 225 232 247 109 273 282 124 195 55 161 153
253 251 254 235 234 235 245 248 229 255 265 275 274 275 288 302 284 271 320 334 13 313 17 246 226 264 230 244 225 206 171 158 183 136 63 266 182 70 150 189 132 107 105 122
251 248 249 243 239 243 244 257 228 275 252 268 273 271 264 259 263 272 260 255 122 347 22 349 335 280 312 242 233 227 166 180 176 184 200 276 286 242 146 131 128 128 133 130
249 250 242 249 241 240 239 253 250 280 297 299 273 272 286 280 251 239 226 254 227 264 301 313 285 262 354 273 33 307 6 113 165 140 178 164 220 239 160 170 147 144 137 140
247 251 245 248 241 239 242 244 235 267 272 273 290 296 287 256 255 229 237 243 230 281 277 295 251 329 8 16 265 294 14 306 318 106 147 149 180 150 123 127 133 133 137 140
256 255 244 243 241 241 245 248 248 238 250 298 295 304 286 261 232 250 225 234 228 235 223 216 294 285 241 152 214 347 341 8 35 312 0 286 164 146 139 137 144 144 143 141
257 251 241 238 242 241 229 284 250 232 252 267 298 291 291 261 257 221 206 220 220 224 221 192 257 237 14 272 269 161 122 84 36 277 344 88 114 149 163 156 138 142 139 141
250 248 244 233 233 222 205 226 239 194 219 252 274 268 289 231 212 213 200 218 228 238 246 210 246 338 323 241 278 164 180 126 216 72 81 57 30 58 113 108 99 116 127 136
239 251 245 238 238 246 248 242 263 273 240 247 269 271 267 242 184 210 206 205 219 240 237 285 73 351 322 320 348 140 90 137 199 149 137 58 39 150 150 137 138 127 125 132
243 253 270 255 246 241 248 229 238 242 220 289 258 287 310 317 235 224 203 210 193 228 197 204 225 107 292 17 35 59 31 118 105 175 174 162 152 158 123 128 131 131 131 132
234 272 255 239 216 210 177 200 206 200 211 221 247 266 271 308 273 121 230 248 222 227 205 194 188 208 217 277 7 61 96 91 75 166 190 202 144 133 137 136 143 140 141 143
229 218 230 247 160 179 204 212 208 199 226 216 234 227 251 266 276 189 298 247 243 215 239 161 199 199 200 177 166 103 88 82 72 340 165 144 135 121 123 133 139 143 148 152
202 271 279 187 191 205 202 215 217 212 232 223 198 206 209 210 148 87 324 267 337 245 330 171 244 203 181 187 172 150 135 133 82 42 85 134 139 143 137 140 143 148 156 158
227 235 243 188 184 204 214 202 201 215 225 222 178 202 125 133 166 178 217 251 249 319 335 205 260 172 173 179 180 159 151 160 158 112 82 106 106 129 130 134 152 157 156 164
222 205 218 234 195 226 215 276 328 283 311 185 153 141 115 138 210 213 299 341 300 276 226 251 68 69 145 134 131 122 120 135 151 192 173 166 157 144 122 157 158 163 171 171
233 232 241 223 264 290 281 281 300 248 256 345 93 92 105 150 218 265 12 242 272 270 287 63 78 81 103 109 113 104 109 124 140 194 228 209 187 198 179 157 168 168 168 173
233 235 263 290 299 326 96 273 233 250 156 131 96 143 105 218 182 170 203 242 191 354 5 67 100 90 88 96 95 104 109 123 137 11 117 166 173 185 205 187 185 174 182 170
239 243 254 278 285 275 285 262 227 265 177 97 115 189 196 186 185 204 57 355 122 116 113 104 108 106 101 92 91 82 97 175 291 129 116 112 96 188 180 183 185 182 180 183